Waarnemingen

Advertentie
Mijn weer
Chambery/Aix-Les-Bains, Frankrijk (7491): temperatuur & dauwpunt: 18.08.2019 01:00:00 - 24.08.2019 01:00:00 (CEST)Chambery/Aix-Les-Bains, Frankrijk (7491): temperatuur 5cm: 18.08.2019 01:00:00 - 24.08.2019 01:00:00 (CEST)Chambery/Aix-Les-Bains, Frankrijk (7491): temperatuur -20cm & temperatuur -100cm: 18.08.2019 01:00:00 - 24.08.2019 01:00:00 (CEST)Chambery/Aix-Les-Bains, Frankrijk (7491): windsnelheid & windstoten: 18.08.2019 01:00:00 - 24.08.2019 01:00:00 (CEST)Chambery/Aix-Les-Bains, Frankrijk (7491): windrichting: 18.08.2019 01:00:00 - 24.08.2019 01:00:00 (CEST)Chambery/Aix-Les-Bains, Frankrijk (7491): luchtdruk: 18.08.2019 01:00:00 - 24.08.2019 01:00:00 (CEST)Chambery/Aix-Les-Bains, Frankrijk (7491): zicht: 18.08.2019 01:00:00 - 24.08.2019 01:00:00 (CEST)Chambery/Aix-Les-Bains, Frankrijk (7491): Zonneschijnduur: 18.08.2019 01:00:00 - 24.08.2019 01:00:00 (CEST)Chambery/Aix-Les-Bains, Frankrijk (7491): neerslag: 18.08.2019 01:00:00 - 24.08.2019 01:00:00 (CEST)
Datum & Tijd tt [°C] td [°C] tt 5cm [°C] tt -20cm [°C] tt -100cm [°C] ff [km/u] ff [kn] fx [km/u] fx [kn] dd ppp [hPa] vv [km] sd [min] rr [mm]
24.08.2019 01:00:00 19,1 15,2 17,4 21,4 20,0 14 7 30 16 N 1021,1 19 0 0,0
24.08.2019 00:00:00 19,7 15,8 17,9 21,4 20,0 15 8 32 18 N 1020,9 20 0 0,0
23.08.2019 23:00:00 20,2 15,2 18,6 21,4 20,0 16 9 40 22 N 1020,8 20 0 0,0
23.08.2019 22:00:00 20,5 15,5 19,0 21,4 20,0 21 12 31 17 N 1020,6 23 0 0,0
23.08.2019 21:00:00 21,5 16,0 20,2 21,4 20,0 20 11 30 16 N 1020,2 27 0 0,0
23.08.2019 20:00:00 22,6 16,6 20,9 21,3 20,0 14 7 25 13 NNW 1019,7 32 0 0,0
23.08.2019 19:00:00 24,2 17,7 26,4 21,3 20,0 17 9 28 15 NNW 1019,4 24 60 0,0
23.08.2019 18:00:00 25,3 18,0 31,5 21,2 20,0 15 8 24 13 NNW 1019,4 22 60 0,0
23.08.2019 17:00:00 25,6 17,3 34,2 21,0 20,0 14 7 20 11 NNW 1019,4 15 60 0,0
23.08.2019 16:00:00 25,1 16,8 31,4 20,9 20,0 11 6 19 10 NW 1020,2 21 60 0,0
23.08.2019 15:00:00 24,1 16,6 30,4 20,8 20,0 11 6 24 13 NNW 1020,8 18 60 0,0
23.08.2019 14:00:00 23,2 16,5 27,6 20,8 20,0 14 7 25 13 NNW 1021,5 15 60 0,0
23.08.2019 13:00:00 22,7 16,7 25,9 20,7 20,0 16 9 26 14 N 1022,1 10 60 0,0
23.08.2019 12:00:00 21,8 16,1 22,7 20,7 20,0 12 6 27 15 N 1022,4 20 7 0,0
23.08.2019 11:00:00 20,5 15,9 20,7 20,7 20,0 17 9 26 14 N 1022,7 20 0 0,0
23.08.2019 10:00:00 19,4 15,1 19,2 20,8 20,0 18 10 24 13 N 1023,1 20 0 0,0
23.08.2019 09:00:00 18,8 15,1 18,1 20,8 20,0 16 9 27 14 NNO 1023,2 20 0 0,0
23.08.2019 08:00:00 18,0 15,1 17,4 20,8 20,0 12 7 22 12 N 1023,0 19 0 0,0
23.08.2019 07:00:00 17,9 14,6 17,4 20,8 20,0 15 8 27 15 NNO 1023,1 20 0 0,0
23.08.2019 06:00:00 18,2 14,9 17,4 20,9 20,0 18 10 29 16 NNO 1022,8 21 0 0,0
23.08.2019 05:00:00 18,6 15,1 17,4 20,9 20,0 16 9 32 17 NNO 1022,9 23 0 0,0
23.08.2019 04:00:00 18,6 15,5 16,6 21,0 20,0 17 9 28 15 NNO 1023,0 24 0 0,0
23.08.2019 03:00:00 18,3 15,7 15,8 21,0 20,0 18 10 26 14 N 1023,1 20 0 0,0
23.08.2019 02:00:00 17,4 15,6 14,3 21,1 20,0 4 2 14 7 N 1023,5 26 0 0,0
23.08.2019 01:00:00 17,4 16,4 13,8 21,2 20,0 3 2 13 7 ZZW 1023,6 20 0 0,0
23.08.2019 00:00:00 16,3 15,3 14,3 21,2 20,0 5 3 10 5 WZW 1023,6 16 0 0,0
22.08.2019 23:00:00 16,9 15,6 14,1 21,2 20,1 4 2 9 5 ZZO 1023,4 17 0 0,0
22.08.2019 22:00:00 18,2 16,5 15,6 21,2 20,1 4 2 6 4 ZZW 1023,2 24 0 0,0
22.08.2019 21:00:00 19,6 17,2 16,3 21,2 20,1 4 2 8 4 Z 1022,4 1,4 0 0,0
22.08.2019 20:00:00 21,8 18,0 20,4 21,1 20,1 4 2 13 7 Z 1021,7 28 1 0,0
22.08.2019 19:00:00 24,8 16,5 26,5 20,9 20,0 7 4 15 8 WNW 1021,1 35 56 0,0
22.08.2019 18:00:00 24,6 16,6 25,3 20,8 20,1 8 4 16 9 NW 1021,5 34 17 0,0
22.08.2019 17:00:00 23,7 16,0 25,6 20,7 20,1 7 4 14 8 NW 1021,7 30 0 0,0
22.08.2019 16:00:00 23,4 16,0 26,5 20,6 20,1 7 4 16 9 NNW 1022,0 33 36 0,0
22.08.2019 15:00:00 23,6 15,1 30,8 20,5 20,1 8 4 16 9 NNW 1022,4 23 60 0,0
22.08.2019 14:00:00 23,0 15,1 27,0 20,5 20,1 5 3 14 7 N 1022,7 20 60 0,0
22.08.2019 13:00:00 21,7 14,8 23,2 20,4 20,1 6 4 15 8 NNO 1023,1 42 26 0,0
22.08.2019 12:00:00 20,6 14,7 23,1 20,4 20,1 8 4 17 9 N 1023,3 35 23 0,0
22.08.2019 11:00:00 20,2 14,6 20,5 20,4 20,1 8 4 14 8 N 1023,4 28 10 0,0
22.08.2019 10:00:00 18,8 14,3 17,9 20,4 20,1 5 3 11 6 NO 1023,2 34 0 0,0
22.08.2019 09:00:00 17,8 13,5 17,3 20,4 20,1 8 4 19 11 NNO 1022,9 19 0 0,0
22.08.2019 08:00:00 17,6 13,3 17,1 20,5 20,1 12 6 21 12 NO 1022,7 36 0 0,0
22.08.2019 07:00:00 17,6 13,3 17,0 20,5 20,1 14 7 24 13 NNO 1022,3 35 0 0,0
22.08.2019 06:00:00 17,9 13,0 17,2 20,5 20,2 13 7 20 11 NNO 1022,1 32 0 0,0
22.08.2019 05:00:00 18,0 13,1 16,6 20,5 20,1 12 6 18 10 NNO 1021,9 49 0 0,0
22.08.2019 04:00:00 17,5 13,4 16,6 20,5 20,1 8 4 18 10 NNO 1022,1 51 0 0,0
22.08.2019 03:00:00 17,9 14,0 17,0 20,6 20,1 8 4 19 11 O 1022,3 48 0 0,0
22.08.2019 02:00:00 18,7 14,0 17,1 20,5 20,1 11 6 20 11 N 1022,5 54 0 0,0
22.08.2019 01:00:00 17,9 15,3 16,8 20,6 20,2 5 3 10 5 NO 1022,8 48 0 0,0
22.08.2019 00:00:00 18,0 15,4 17,1 20,6 20,2 4 2 8 4 O 1022,7 38 0 0,0
21.08.2019 23:00:00 18,6 14,9 17,5 20,6 20,1 4 2 11 6 OZO 1022,8 33 0 0,0
21.08.2019 22:00:00 18,8 15,1 17,8 20,5 20,2 4 2 10 5 Z 1022,6 36 0 0,0
21.08.2019 21:00:00 19,5 14,3 18,3 20,5 20,2 5 3 14 7 WNW 1022,3 40 0 0,0
21.08.2019 20:00:00 20,0 13,7 19,4 20,5 20,2 9 5 22 12 NNO 1022,0 40 0 0,0
21.08.2019 19:00:00 20,3 13,7 20,1 20,5 20,2 15 8 23 12 NNO 1021,9 40 2 0,0
21.08.2019 18:00:00 20,6 13,5 20,5 20,4 20,2 14 8 24 13 NNO 1022,3 28 0 0,0
21.08.2019 17:00:00 20,4 13,1 20,9 20,4 20,2 15 8 24 13 NNO 1022,4 29 0 0,0
21.08.2019 16:00:00 20,3 13,0 21,8 20,3 20,2 11 6 29 16 NNO 1022,9 24 1 0,0
21.08.2019 15:00:00 19,8 13,0 21,6 20,3 20,2 21 11 35 19 N 1022,9 24 6 0,0
21.08.2019 14:00:00 19,2 12,7 20,2 20,3 20,2 22 12 35 19 N 1023,2 14 6 0,0
21.08.2019 13:00:00 18,2 12,9 18,9 20,3 20,2 19 10 32 17 N 1024,0 19 0 0,0
21.08.2019 12:00:00 17,6 12,1 19,0 20,4 20,2 20 11 30 16 N 1024,6 16 0 0,0
21.08.2019 11:00:00 17,3 12,2 17,0 20,4 20,2 21 11 36 19 N 1024,5 19 0 0,0
21.08.2019 10:00:00 16,3 11,7 16,1 20,4 20,2 19 10 33 18 NNO 1024,5 15 4 0,0
21.08.2019 09:00:00 15,7 12,1 15,6 20,5 20,2 19 10 32 17 NNO 1024,6 14 1 0,0
21.08.2019 08:00:00 15,6 12,0 15,0 20,5 20,2 20 11 34 18 NNO 1024,8 10 4 0,0
21.08.2019 07:00:00 15,3 12,1 14,7 20,6 20,2 27 15 36 19 N 1024,8 52 0 0,0
21.08.2019 06:00:00 15,1 11,7 14,6 20,6 20,2 24 13 35 19 NNO 1024,6 59 0 0,0
21.08.2019 05:00:00 15,0 12,1 13,9 20,7 20,2 21 11 32 17 N 1024,7 58 0 0,0
21.08.2019 04:00:00 14,8 12,1 13,7 20,8 20,2 22 12 32 17 N 1025,0 55 0 0,0
21.08.2019 03:00:00 15,3 12,1 13,7 20,8 20,2 21 11 31 17 NNO 1025,3 59 0 0,0
21.08.2019 02:00:00 15,1 12,0 13,5 20,9 20,2 16 8 28 15 NNO 1025,4 60 0 0,0
21.08.2019 01:00:00 15,1 12,0 13,3 20,9 20,2 16 9 27 15 NNO 1025,6 57 0 0,0
21.08.2019 00:00:00 15,4 12,3 13,4 21,0 20,2 18 10 37 20 N 1026,0 60 0 0,0
20.08.2019 23:00:00 15,5 12,6 13,6 21,0 20,2 24 13 36 19 N 1026,0 60 0 0,0
20.08.2019 22:00:00 15,6 13,1 14,0 21,1 20,2 10 6 23 13 NNO 1025,9 60 0 0,0
20.08.2019 21:00:00 15,4 13,2 14,2 21,1 20,2 11 6 29 16 NW 1025,6 60 3 0,2
20.08.2019 20:00:00 15,7 13,5 14,6 21,2 20,2 20 11 27 14 N 1025,4 10 0 0,8
20.08.2019 19:00:00 16,1 13,6 14,7 21,2 20,2 12 7 35 19 N 1025,8 33 0 0,4
20.08.2019 18:00:00 16,4 14,9 15,4 21,2 20,2 10 5 26 14 NNW 1024,9 8 0 1,8
20.08.2019 17:00:00 16,8 15,0 16,2 21,3 20,2 16 9 24 13 N 1024,5 10 0 1,6
20.08.2019 16:00:00 17,0 15,7 16,5 21,3 20,2 7 4 22 12 NW 1024,6 6 0 1,2
20.08.2019 15:00:00 17,3 15,5 16,1 21,4 20,2 11 6 27 14 N 1024,1 8 0 0,8
20.08.2019 14:00:00 17,2 16,1 16,8 21,4 20,2 8 4 23 12 WNW 1022,8 29 0 1,4
20.08.2019 13:00:00 17,1 16,0 16,6 21,5 20,2 18 10 31 17 N 1022,6 17 0 2,5
20.08.2019 12:00:00 17,0 16,2 16,5 21,6 20,2 21 11 32 18 N 1021,8 3,7 0 2,8
20.08.2019 11:00:00 17,2 16,1 16,8 21,6 20,2 15 8 29 15 N 1021,6 5 0 1,4
20.08.2019 10:00:00 17,2 16,1 16,4 21,8 20,2 18 10 26 14 N 1021,5 11 0 1,4
20.08.2019 09:00:00 17,0 15,9 16,3 21,8 20,2 18 10 28 15 N 1021,2 11 0 1,8
20.08.2019 08:00:00 16,9 16,1 16,4 21,9 20,2 8 5 22 12 ZZO 1021,1 2,0 0 4,9
20.08.2019 07:00:00 17,3 16,3 16,7 21,9 20,2 8 5 25 13 NNW 1019,9 11 0 1,2
20.08.2019 06:00:00 17,3 16,3 16,9 22,0 20,2 14 8 26 14 N 1019,7 14 0 1,6
20.08.2019 05:00:00 17,2 16,7 16,8 22,1 20,2 3 2 9 5 ZW 1020,0 15 0 0,0
20.08.2019 04:00:00 17,2 16,4 16,8 22,1 20,2 2 1 13 7 W 1019,6 14 0 0,0
20.08.2019 03:00:00 17,3 16,5 16,9 22,2 20,2 7 4 19 10 ZZW 1020,6 4,3 0 1,7
20.08.2019 02:00:00 17,5 16,5 16,8 22,2 20,2 3 2 19 11 Z 1020,4 19 0 2,0
20.08.2019 01:00:00 18,0 16,2 17,0 22,3 20,2 11 6 24 13 O 1020,3 4,9 0 1,8
20.08.2019 00:00:00 18,9 15,8 18,6 22,3 20,2 15 8 23 12 N 1020,5 40 0 0,0
19.08.2019 23:00:00 19,0 15,7 18,7 22,4 20,2 15 8 26 14 N 1020,2 50 0 0,0
19.08.2019 22:00:00 19,3 16,0 19,0 22,4 20,2 18 10 29 16 N 1020,1 50 0 0,0
19.08.2019 21:00:00 19,8 16,1 19,5 22,4 20,2 16 9 31 17 N 1019,6 49 0 0,0
19.08.2019 20:00:00 20,2 16,0 20,0 22,3 20,1 22 12 36 20 NNO 1019,1 49 0 0,0
19.08.2019 19:00:00 21,3 16,0 21,2 22,3 20,2 22 12 32 17 N 1018,4 47 0 0,0
19.08.2019 18:00:00 22,8 16,8 24,0 22,2 20,1 10 5 18 10 O 1018,1 50 0 0,0
19.08.2019 17:00:00 23,5 17,0 24,9 22,2 20,2 6 3 15 8 ONO 1017,8 40 0 0,0
19.08.2019 16:00:00 23,5 17,0 24,8 22,1 20,2 6 4 19 10 NO 1017,7 14 5 0,0
19.08.2019 15:00:00 23,5 17,7 26,9 22,0 20,2 13 7 23 13 N 1017,7 36 24 0,0
19.08.2019 14:00:00 23,6 18,0 25,2 22,0 20,1 14 7 20 11 N 1017,4 27 18 0,0
19.08.2019 13:00:00 22,5 17,8 21,0 22,0 20,2 7 4 16 9 ZZO 1017,7 33 19 0,0
19.08.2019 12:00:00 20,7 17,9 20,4 22,0 20,2 2 1 10 6 O 1017,9 20 0 0,6
19.08.2019 11:00:00 21,3 18,1 20,2 22,0 20,2 3 2 17 9 WNW 1017,8 20 13 0,0
19.08.2019 10:00:00 20,2 17,4 19,3 22,1 20,2 4 2 9 5 ZZW 1017,3 33 1 0,0
19.08.2019 09:00:00 19,6 17,7 17,6 22,1 20,1 4 2 14 8 WNW 1017,4 29 5 0,0
19.08.2019 08:00:00 18,3 16,6 17,2 22,1 20,2 9 5 20 11 Z 1017,5 31 0 0,0
19.08.2019 07:00:00 18,8 16,9 17,8 22,1 20,2 12 7 19 10 ZO 1017,0 9 0 2,0
19.08.2019 06:00:00 19,2 18,0 17,9 22,2 20,2 6 3 17 9 O 1017,3 18 0 0,4
19.08.2019 05:00:00 19,0 17,3 17,4 22,2 20,1 5 3 17 9 ZW 1016,0 15 0 0,6
19.08.2019 04:00:00 21,3 17,1 18,3 22,2 20,2 3 2 41 22 O 1016,1 33 0 0,6
19.08.2019 03:00:00 21,6 18,0 19,5 22,3 20,2 9 5 19 11 NNO 1016,0 33 0 0,0
19.08.2019 02:00:00 21,8 18,0 19,5 22,3 20,2 8 4 18 10 NW 1015,0 32 0 0,0
19.08.2019 01:00:00 22,6 17,7 19,7 22,3 20,2 6 3 25 13 NW 1014,7 29 0 0,2
19.08.2019 00:00:00 25,6 15,6 22,1 22,3 20,2 11 6 26 14 Z 1014,3 19 0 0,0
18.08.2019 23:00:00 27,1 15,1 25,2 22,2 20,2 9 5 46 25 OZO 1013,4 41 0 0,0
18.08.2019 22:00:00 27,6 15,3 26,1 22,2 20,2 24 13 40 21 ZO 1011,4 39 0 0,0
18.08.2019 21:00:00 28,5 15,4 26,5 22,2 20,2 25 14 48 26 ZZO 1010,0 39 0 0,0
18.08.2019 20:00:00 28,9 16,1 27,5 22,1 20,2 29 16 47 26 ZZO 1009,3 39 8 0,0
18.08.2019 19:00:00 30,5 16,9 31,4 21,9 20,2 26 14 39 21 ZZO 1009,2 15 56 0,0
18.08.2019 18:00:00 32,3 16,2 38,3 21,8 20,2 10 5 23 12 OZO 1009,3 20 60 0,0
18.08.2019 17:00:00 32,1 17,2 40,6 21,7 20,2 16 8 38 20 ZZO 1009,2 17 60 0,0
18.08.2019 16:00:00 32,6 17,6 39,4 21,6 20,2 20 11 42 23 Z 1009,6 9 60 0,0
18.08.2019 15:00:00 33,1 17,3 36,8 21,5 20,2 8 4 36 19 Z 1009,9 18 57 0,0
18.08.2019 14:00:00 30,9 16,5 36,3 21,4 20,2 11 6 19 10 N 1010,2 20 60 0,0
18.08.2019 13:00:00 28,4 16,3 34,1 21,4 20,2 8 5 16 9 N 1010,5 20 60 0,0
18.08.2019 12:00:00 26,7 16,3 31,3 21,3 20,2 10 5 18 10 N 1011,2 20 60 0,0
18.08.2019 11:00:00 24,9 15,2 28,4 21,4 20,2 10 6 16 9 NNW 1011,5 15 60 0,0
18.08.2019 10:00:00 24,3 14,7 25,2 21,4 20,2 4 2 11 6 NO 1011,7 12 60 0,0
18.08.2019 09:00:00 22,6 14,2 17,1 21,5 20,2 4 2 8 4 NNO 1012,1 19 60 0,0
18.08.2019 08:00:00 17,0 15,0 11,9 21,5 20,2 3 1 9 5 NO 1012,7 45 13 0,0
18.08.2019 07:00:00 15,0 13,0 10,5 21,6 20,2 4 2 7 4 NO 1013,0 31 0 0,0
18.08.2019 06:00:00 15,2 13,4 11,0 21,7 20,2 4 2 8 5 ZO 1013,1 31 0 0,0
18.08.2019 05:00:00 16,1 13,4 11,2 21,7 20,2 4 2 8 4 ONO 1013,2 32 0 0,0
18.08.2019 04:00:00 17,4 13,9 12,4 21,8 20,2 9 5 11 6 Z 1013,5 34 0 0,0
18.08.2019 03:00:00 20,1 13,8 14,7 21,8 20,3 4 2 13 7 ZW 1013,5 37 0 0,0
18.08.2019 02:00:00 22,1 13,4 18,4 21,8 20,2 8 4 16 9 ZZW 1013,4 38 0 0,0
18.08.2019 01:00:00 23,5 13,1 19,2 21,9 20,3 10 5 27 15 ZZW 1013,2 38 0 0,0

tt = temperatuur
td = dauwpunt
tt 5cm = temperatuur 5cm
tt -20cm = temperatuur -20cm
tt -100cm = temperatuur -100cm
ff = windsnelheid
fx = windstoten
dd = windrichting
ppp = luchtdruk
vv = zicht
sd = Zonneschijnduur
rr = neerslag

Weerstations in de omgeving